Lake Louise, Canada 16 day weather forecast

Slopes altitude range 1630 m - 2730m

Number of lifts: 26 Pistes: 100km

In some cases the lift and piste totals shown are for the ski domain (e.g. Three Valleys) rather than individual resort (e.g. Courchevel)

Overview

The 16 day weather forecast is fully updated 4 times every day.

    • Tue 24 APR 2018
    • Tue 24
    • -10C -9C
    • Wed 25 APR 2018
    • Wed 25
    • -7C -4C
    • Thu 26 APR 2018
    • Thu 26
    • -6C -5C
    • Fri 27 APR 2018
    • Fri 27
    • -2C -1C
    • Sat 28 APR 2018
    • Sat 28
    • 0C 1C
    • Sun 29 APR 2018
    • Sun 29
    • 1C 3C
    • Mon 30 APR 2018
    • Mon 30
    • -7C -4C
    • Tue 01 MAY 2018
    • Tue 01
    • -5C -2C
    • Wed 02 MAY 2018
    • Wed 02
    • -2C -1C
    • Thu 03 MAY 2018
    • Thu 03
    • -8C -7C
    • Fri 04 MAY 2018
    • Fri 04
    • -3C 7C
    • Sat 05 MAY 2018
    • Sat 05
    • 1C 13C
    • Sun 06 MAY 2018
    • Sun 06
    • 4C 17C
    • Mon 07 MAY 2018
    • Mon 07
    • 7C 18C
    • Tue 08 MAY 2018
    • Tue 08
    • 0C 7C
    • Wed 09 MAY 2018
    • Wed 09
    • -4C 9C

Date:

Time Type 0°C level Temp Chill Snow Cloud Speed Gust Dir Press
3:00 1049m -8°C -8_3 0cm 3% 3mph 3mph 1030mB
6:00 825m -10°C -10_3 0cm 1% 3mph 4mph 1032mB
9:00 867m -10°C -10_3 0cm 10% 3mph 4mph 1032mB
12:00 879m -9°C -9_4 0cm 37% 4mph 4mph 1032mB
15:00 1883m -3°C -3_5 0cm 96% 5mph 6mph 1028mB
18:00 2223m 0°C 0_7 0cm 97% 7mph 9mph 1023mB
21:00 2310m 0°C 0_6 0cm 100% 6mph 8mph 1021mB
0:00 2311m 0°C 0_6 0cm 100% 6mph 7mph 1018mB
3:00 1982m -2°C -2_5 0cm 100% 5mph 6mph 1020mB
6:00 1241m -7°C -7_2 0cm 100% 2mph 3mph 1021mB
9:00 1422m -7°C -7_2 0cm 100% 2mph 2mph 1021mB
12:00 1601m -4°C -4_3 0cm 100% 3mph 4mph 1021mB
15:00 1984m -2°C -2_6 1cm 72% 6mph 7mph 1022mB
18:00 2120m -1°C -1_4 1cm 85% 4mph 4mph 1021mB
21:00 2339m -1°C -1_1 1cm 96% 1mph 1mph 1021mB
0:00 2455m -1°C -1_3 1cm 96% 3mph 3mph 1020mB
3:00 1744m -4°C -4_3 0cm 24% 3mph 3mph 1022mB
6:00 1494m -5°C -5_2 0cm 12% 2mph 2mph 1025mB
9:00 1440m -6°C -6_2 0cm 0% 2mph 2mph 1025mB
12:00 1457m -5°C -5_3 0cm 0% 3mph 3mph 1025mB
15:00 3450m 0°C 0_4 0cm 5% 4mph 5mph 1022mB
18:00 3675m 2°C 2_5 0cm 26% 5mph 5mph 1019mB
21:00 3696m 2°C 2_4 0cm 60% 4mph 5mph 1017mB
0:00 3637m 2°C 2_4 0cm 56% 4mph 4mph 1015mB
3:00 2371m 0°C 0_2 0cm 54% 2mph 3mph 1016mB
6:00 2249m -1°C -1_3 0cm 67% 3mph 3mph 1017mB
9:00 2082m -1°C -1_2 0cm 56% 2mph 3mph 1016mB
12:00 2031m -1°C -1_2 0cm 43% 2mph 2mph 1016mB
15:00 3515m 3°C 3_1 0cm 76% 1mph 1mph 1013mB
18:00 3592m 8°C 8_2 0cm 76% 2mph 2mph 1010mB
21:00 3546m 8°C 8_4 0cm 95% 4mph 4mph 1007mB
0:00 3529m 8°C 8_3 0cm 93% 3mph 3mph 1005mB
3:00 3523m 1°C 1_2 0cm 79% 2mph 3mph 1005mB
6:00 3502m 1°C 1_1 0cm 82% 1mph 2mph 1005mB
9:00 3553m 0°C 0_1 0cm 87% 1mph 1mph 1003mB
12:00 2502m 1°C 1_2 0cm 87% 2mph 3mph 1001mB
15:00 3527m 5°C 5_2 0cm 92% 2mph 2mph 998mB
18:00 3466m 10°C 10_4 0cm 95% 4mph 4mph 995mB
21:00 3349m 10°C 10_5 0cm 98% 5mph 4mph 992mB
0:00 3352m 10°C 10_5 0cm 98% 5mph 5mph 991mB
3:00 3131m 4°C 4_4 0cm 100% 4mph 4mph 992mB
6:00 2847m 3°C 3_4 0cm 100% 4mph 5mph 994mB
9:00 2706m 2°C 2_5 0cm 100% 5mph 6mph 994mB
12:00 2478m 3°C 3_7 8cm 100% 7mph 10mph 997mB
15:00 2207m 1°C 1_9 1cm 100% 9mph 11mph 1000mB
18:00 2044m 1°C 1_8 2cm 100% 8mph 10mph 1002mB
21:00 2075m -2°C -2_7 1cm 100% 7mph 9mph 1003mB
0:00 2031m -2°C -2_6 2cm 100% 6mph 8mph 1005mB
3:00 1795m -3°C -3_5 1cm 100% 5mph 7mph 1009mB
6:00 1623m -4°C -4_5 1cm 100% 5mph 6mph 1012mB
9:00 1307m -6°C -6_4 0cm 97% 4mph 4mph 1013mB
12:00 1196m -4°C -4_3 0cm 87% 3mph 3mph 1014mB
15:00 1923m -2°C -2_6 0cm 93% 6mph 7mph 1012mB
18:00 2311m 1°C 1_8 1cm 96% 8mph 12mph 1008mB
21:00 2420m 0°C 0_9 1cm 99% 9mph 16mph 1006mB
0:00 2400m 1°C 1_14 2cm 99% 14mph 21mph 1005mB
3:00 2072m -1°C -1_6 0cm 98% 6mph 7mph 1008mB
6:00 1731m -4°C -4_3 1cm 94% 3mph 3mph 1012mB
9:00 1657m -3°C -3_4 1cm 100% 4mph 7mph 1014mB
12:00 1375m -2°C -2_2 2cm 100% 2mph 2mph 1017mB
15:00 1986m -1°C -1_3 0cm 2% 3mph 4mph 1017mB
18:00 2243m 3°C 3_7 0cm 3% 7mph 9mph 1014mB
21:00 2496m 3°C 3_10 0cm 67% 10mph 13mph 1011mB
0:00 2618m 3°C 3_11 0cm 82% 11mph 15mph 1010mB
3:00 2335m 0°C 0_8 0cm 1% 8mph 9mph 1011mB
6:00 1817m -2°C -2_9 0cm 24% 9mph 12mph 1012mB
9:00 1843m -2°C -2_10 0cm 88% 10mph 15mph 1011mB
12:00 1814m -1°C -1_9 0cm 94% 9mph 14mph 1010mB
15:00 2321m 3°C 3_9 0cm 64% 9mph 25mph 1007mB
18:00 2560m 6°C 6_20 1cm 36% 20mph 33mph 1005mB
21:00 2273m 3°C 3_16 7cm 69% 16mph 25mph 1009mB
0:00 1759m -2°C -2_24 8cm 78% 24mph 31mph 1014mB
3:00 1276m -5°C -5_10 0cm 94% 10mph 23mph 1017mB
6:00 976m -7°C -7_6 0cm 60% 6mph 9mph 1022mB
9:00 952m -7°C -7_7 0cm 9% 7mph 11mph 1024mB
12:00 886m -7°C -7_6 0cm 4% 6mph 8mph 1026mB
15:00 1597m -3°C -3_7 0cm 0% 7mph 10mph 1025mB
18:00 2092m 1°C 1_9 0cm 0% 9mph 11mph 1022mB
Morning 0.458333mm 0 1721m -2°C -2_5 0cm 76% 5mph 5mph 1024mB
Afternoon 0.197917mm 0 2491m 7°C 7_6 0cm 18% 6mph 9mph 1021mB
Morning 0.00520833mm 0 2937m 2°C 2_7 0cm 17% 7mph 8mph 1021mB
Afternoon 0.0572917mm 0 3086m 13°C 13_6 0cm 0% 6mph 8mph 1018mB
Morning 0.817708mm 0 3486m 7°C 7_7 0cm 41% 7mph 8mph 1018mB
Afternoon 0.489583mm 0 3449m 17°C 17_6 0cm 48% 6mph 8mph 1017mB
Morning 1.14062mm 0 3729m 9°C 9_7 0cm 15% 7mph 8mph 1015mB
Afternoon 0.28125mm 0 3664m 18°C 18_17 0cm 20% 17mph 28mph 1007mB
Morning 0.776042mm 0 3217m 7°C 7_7 0cm 45% 7mph 11mph 1007mB
Afternoon 0.385417mm 1.6875 1970m 7°C 7_4 14cm 73% 4mph 7mph 1019mB
Morning 0.135417mm 0.625 1542m -3°C -3_6 0cm 53% 6mph 7mph 1019mB
Afternoon 0.385417mm 0 2635m 9°C 9_8 0cm 52% 8mph 12mph 1005mB

16 day outlook at a glance

Forecast issued: 24/04/2018 05:26:16

Chat

Your comments and questions. In a resort? Let us know what it's like!


Characters left 250

For terms and conditions see Readers Comments on the Cookie and privacy policy page.